Regional Weather Roundup
Issued by NWS Spokane, WA

Home | Current Version | Previous Version | Text Only | Print | Product List | Glossary On
Versions: 1 2 3 4 5 6 7 8 9 10 11 12 13 14 15 16 17 18 19 20 21 22 23 24 25 26 27 28 29 30 31 32 33 34 35 36 37 38 39 40 41 42 43 44 45 46 47 48 49 50
000
NZUS01 KOTX 070705
RWROTX
EASTERN WASHINGTON/NORTHERN IDAHO ROUNDUP
NATIONAL WEATHER SERVICE, SPOKANE WA
1200 AM PDT TUE JUL 07 2015

Note: "fair" indicated few or no clouds below 12,000 feet with no
significant weather and/or obstructions to visibility.

...NORTHEAST WASHINGTON AND NORTHERN IDAHO PANHANDLE...

CITY           SKY/WX    TMP DP  RH WIND       PRES   REMARKS
SPOKANE INTL   PTCLDY    78  44  29 NE7       29.93S
SPOKANE DOWNTO CLEAR     72  45  37 NE3       29.92R
COEUR D ALENE  CLEAR     68  46  45 E3        29.94S
DEER PARK      CLEAR     64  47  53 N7        29.93S
SANDPOINT      PTCLDY    61  48  63 CALM      29.96R
BONNERS FERRY  FAIR      66  48  52 CALM      29.98R

...SOUTHEAST WASHINGTON AND SOUTHERN IDAHO PANHANDLE...

CITY           SKY/WX    TMP DP  RH WIND       PRES   REMARKS
WALLA WALLA    CLEAR     84  46  26 S13       29.87R
PULLMAN/MOSCOW CLEAR     63  47  55 CALM      29.97R
LEWISTON       CLEAR     81  39  22 S5        29.88R
LOWELL           N/A     67  54  63 N3        29.96R

...COLUMBIA BASIN...

CITY           SKY/WX    TMP DP  RH WIND       PRES   REMARKS
EPHRATA        CLEAR     84  40  21 NW15      29.85S
MOSES LAKE     CLEAR     78  43  28 N7        29.86S
TRI CITIES     CLEAR     77  52  41 NW8       29.82R
HERMISTON      CLEAR     81  52  36 SW10      29.85R
PENDLETON      CLEAR     82  46  28 W18G25    29.89R

...EAST SLOPES CASCADES...

CITY           SKY/WX    TMP DP  RH WIND       PRES   REMARKS
THE DALLES     CLEAR     83  56  39 NW18      29.88R
YAKIMA         PTCLDY    81  52  36 N8        29.90R
ELLENSBURG     CLEAR     75  50  41 NW12G22   29.93S
WENATCHEE      CLEAR     83  38  20 W13       29.89S
OMAK           CLEAR     82  43  25 N12       29.86R

...SOUTHERN BRITISH COLUMBIA...

CITY           SKY/WX    TMP DP  RH WIND       PRES   REMARKS

...WESTERN MONTANA...

CITY           SKY/WX    TMP DP  RH WIND       PRES   REMARKS
MISSOULA       CLEAR     60  36  40 NW6       30.05S

...NEIGHBORING CITIES...

CITY           SKY/WX    TMP DP  RH WIND       PRES   REMARKS
SEATTLE        PTCLDY    64  53  67 SW6       30.02R



USA.gov is the U.S. government's official web portal to all federal, state and local government web resources and services.